Location: ??????
(55.6500°N, 37.8000°E)
Time: 15:17:02
(UTC+00:00)

Cosmos 192 - Pass Details

Date: 14 April 2024
Orbit: 699 x 710 km, 74.0° (Epoch: 18 May)

Event Time Altitude Azimuth Distance (km) Brightness Sun altitude
Rises 00:25:10 0° 330° (NNW) 3,097 7.8 -15.3°
Reaches altitude 10° 00:27:31 10° 326° (NNW) 2,176 7.0 -15.0°
Maximum altitude 00:32:20 58° 249° (WSW) 821 4.3 -14.6°
Drops below altitude 10° 00:37:07 10° 171° (S) 2,165 6.5 -14.1°
Sets 00:39:27 0° 167° (SSE) 3,081 7.4 -13.8°
